Weather History for Campo, CA

Change the Weather History Date:

Tuesday, October 5, 2010

  Actual Average Record
Temperature  
Mean Temperature 51 °F 64 °F  
Max Temperature 59 °F 83 °F 97 °F (1980)
Min Temperature 43 °F 44 °F 31 °F (1982)
Degree Days  
Heating Degree Days 14 3  
Month to date heating degree days 19 15  
Since 1 July heating degree days 127 65  
Cooling Degree Days 0 2  
Month to date cooling degree days 20 10  
Year to date cooling degree days 637 821  
Growing Degree Days 2 (Base 50)    
Moisture  
Dew Point 45 °F    
Average Humidity 70    
Maximum Humidity 93    
Minimum Humidity 47    
Precipitation  
Precipitation 0.00 in 0.02 in 0.37 in (2011)
Month to date precipitation 0.40 0.08  
Year to date precipitation 13.17 11.59  
Since 1 July precipitation 0.58 1.44  
Snow  
Snow 0.00 in - - ()
Month to date snowfall 0.0  
Year to date snowfall 1.0  
Since 1 July snowfall 0.0  
Snow Depth 0.00 in    
Sea Level Pressure  
Sea Level Pressure 29.95 in    
Wind  
Wind Speed 9 mph (WSW)    
Max Wind Speed 20 mph    
Max Gust Speed 24 mph    
T = Trace of Precipitation, MM = Missing Value Source: NWS Daily Summary

Daily Weather History Graph

Daily Weather History Graph

Search for Another Location

Airport:

Trip Planner

Search our weather history database for the weather conditions in past years. The results will help you decide how hot, cold, wet, or windy it might be!

Date:

Astronomy

Oct. 05, 2010 Rise Set
Actual Time 6:42 AM PDT 6:25 PM PDT
Civil Twilight 6:18 AM PDT 6:49 PM PDT
Nautical Twilight 5:49 AM PDT 7:18 PM PDT
Astronomical Twilight 5:21 AM PDT 7:46 PM PDT
Moon 4:17 AM PDT (10/5) 4:54 PM PDT (10/5)
Length of Visible Light 12h 31m
Length of Day
11h 42m
Waning Crescent, 6% of the Moon is Illuminated
Oct 5
Waning Crescent
Oct 7
New
Oct 14
First Quarter
Oct 22
Full
Oct 30
Last Quarter

Hourly Weather History & Observations

Time (PDT) Temp. Dew Point Humidity Pressure Visibility Wind Dir Wind Speed Gust Speed Precip Events Conditions
12:52 AM 50.0 °F 46.0 °F 86% 29.93 in - WSW 9.2 mph - N/A   Unknown
1:52 AM 48.9 °F 46.9 °F 93% 29.93 in - SW 8.1 mph - N/A   Unknown
2:52 AM 48.9 °F 46.9 °F 93% 29.93 in - SW 11.5 mph - N/A   Unknown
3:52 AM 48.0 °F 46.0 °F 93% 29.93 in - SW 9.2 mph - N/A   Unknown
4:52 AM 48.9 °F 46.9 °F 93% 29.93 in - SW 8.1 mph - N/A   Unknown
5:52 AM 48.9 °F 45.0 °F 86% 29.94 in - West 10.4 mph - N/A   Unknown
6:52 AM 46.9 °F 45.0 °F 93% 29.96 in - SW 9.2 mph - N/A   Unknown
7:52 AM 48.9 °F 46.9 °F 93% 29.97 in - SW 10.4 mph - N/A   Unknown
8:52 AM 50.0 °F 46.0 °F 86% 29.98 in - SW 8.1 mph - N/A   Unknown
9:52 AM 51.1 °F 46.0 °F 83% 29.99 in - WSW 11.5 mph - N/A   Unknown
10:52 AM 54.0 °F 44.1 °F 69% 29.97 in - WSW 9.2 mph - N/A   Unknown
11:52 AM 55.9 °F 41.0 °F 57% 29.96 in - West 12.7 mph 19.6 mph N/A   Unknown
12:52 PM 59.0 °F 39.9 °F 49% 29.94 in - WSW 18.4 mph 24.2 mph N/A   Unknown
1:52 PM 57.9 °F 39.9 °F 51% 29.93 in - WSW 13.8 mph 18.4 mph N/A   Unknown
2:52 PM 57.0 °F 42.1 °F 57% 29.92 in - WSW 13.8 mph 21.9 mph N/A   Unknown
3:52 PM 57.0 °F 44.1 °F 62% 29.92 in - West 10.4 mph - N/A   Unknown
4:52 PM 55.9 °F 44.1 °F 64% 29.92 in - WSW 10.4 mph - N/A   Unknown
5:52 PM 55.0 °F 44.1 °F 67% 29.93 in - West 10.4 mph - N/A   Unknown
6:52 PM 53.1 °F 46.0 °F 77% 29.95 in - WSW 10.4 mph - N/A   Unknown
7:52 PM 51.1 °F 46.0 °F 83% 29.95 in - WSW 8.1 mph - N/A   Unknown
8:52 PM 50.0 °F 46.9 °F 89% 29.96 in - SW 8.1 mph - N/A   Unknown
9:52 PM 48.9 °F 46.9 °F 93% 29.98 in - Calm Calm - N/A   Unknown
10:52 PM 48.9 °F 46.9 °F 93% 29.97 in - Calm Calm - N/A   Unknown
11:52 PM 46.0 °F 45.0 °F 96% 29.97 in - Calm Calm - N/A   Unknown